K9JWM Weather Reports


Display with metric or nautical units.
time (UTC)temp
F
wind
direction
speed
MPH
gust
MPH
rain 1hr
in
rain 24hr
in
rain mn
in
humidity
%
barometer
mb
20260504003005 62 279 2.0 9.0 0.00 0.00 0.00 33 1001.6
20260504002004 63 294 5.0 13.0 0.00 0.00 0.00 31 1001.8
20260504001709 63 260 5.0 7.0 0.00 0.00 0.00 31 1001.8
20260504001004 63 271 5.0 13.0 0.00 0.00 0.00 29 1001.8
20260504000004 63 252 3.0 9.0 0.00 0.00 0.00 30 1001.9
20260503235004 63 278 4.0 13.0 0.00 0.00 0.00 29 1002.0
20260503234710 63 272 3.0 5.0 0.00 0.00 0.00 30 1001.9
20260503232005 64 268 3.0 12.0 0.00 0.00 0.00 27 1001.9
20260503231710 64 282 5.0 12.0 0.00 0.00 0.00 27 1002.0
20260503230004 64 247 3.0 10.0 0.00 0.00 0.00 26 1002.0
20260503225005 64 272 3.0 15.0 0.00 0.00 0.00 24 1002.0
20260503224709 64 288 2.0 10.0 0.00 0.00 0.00 25 1001.9
20260503224004 64 252 5.0 17.0 0.00 0.00 0.00 27 1001.9
20260503223004 64 165 2.0 13.0 0.00 0.00 0.00 23 1002.0
20260503222005 64 254 4.0 15.0 0.00 0.00 0.00 28 1002.1
20260503221710 64 219 3.0 3.0 0.00 0.00 0.00 25 1002.0
20260503221004 64 270 7.0 15.0 0.00 0.00 0.00 22 1001.9
20260503215005 64 269 7.0 16.0 0.00 0.00 0.00 24 1002.0
20260503214710 64 288 7.0 12.0 0.00 0.00 0.00 24 1002.1
20260503212005 65 300 7.0 17.0 0.00 0.00 0.00 26 1001.9
20260503211709 64 284 6.0 12.0 0.00 0.00 0.00 24 1002.0
20260503211004 65 304 7.0 16.0 0.00 0.00 0.00 24 1001.9
20260503210005 65 272 5.0 16.0 0.00 0.00 0.00 24 1001.9
20260503204710 64 271 10.0 17.0 0.00 0.00 0.00 28 1002.1
20260503204004 64 254 12.0 18.0 0.00 0.00 0.00 27 1002.1
20260503203209 65 289 6.0 14.0 0.00 0.00 0.00 28 1002.1
20260503203004 65 326 7.0 15.0 0.00 0.00 0.00 28 1001.9
20260503202004 64 252 7.0 17.0 0.00 0.00 0.00 33 1002.3
20260503201709 64 295 10.0 14.0 0.00 0.00 0.00 32 1002.3
20260503201004 64 275 14.0 25.0 0.00 0.00 0.00 31 1002.3
20260503200004 65 263 8.0 16.0 0.00 0.00 0.00 32 1002.2
20260503195005 64 337 7.0 21.0 0.00 0.00 0.00 34 1002.1
20260503194710 64 247 5.0 6.0 0.00 0.00 0.00 32 1002.2
20260503194004 65 263 9.0 16.0 0.00 0.00 0.00 31 1002.4
20260503193004 64 279 7.0 23.0 0.00 0.00 0.00 32 1002.4
20260503191709 63 261 9.0 15.0 0.00 0.00 0.00 33 1002.6
20260503191004 64 293 10.0 22.0 0.00 0.00 0.00 35 1002.6
20260503185004 63 256 6.0 17.0 0.00 0.00 0.00 37 1002.7
20260503184710 63 268 7.0 7.0 0.00 0.00 0.00 38 1002.7
20260503183004 63 254 5.0 14.0 0.00 0.00 0.00 36 1002.8
20260503182005 63 260 7.0 17.0 0.00 0.00 0.00 39 1002.9
20260503181710 64 262 8.0 10.0 0.00 0.00 0.00 37 1003.0
20260503181005 63 273 2.0 15.0 0.00 0.00 0.00 39 1002.8
20260503180005 63 260 10.0 17.0 0.00 0.00 0.00 39 1003.2
20260503175004 62 281 7.0 18.0 0.00 0.00 0.00 40 1003.3
20260503174710 63 257 10.0 16.0 0.00 0.00 0.00 38 1003.2
20260503174004 63 318 4.0 15.0 0.00 0.00 0.00 43 1003.2
20260503173004 62 346 6.0 17.0 0.00 0.00 0.00 42 1003.3
20260503171710 62 248 10.0 15.0 0.00 0.00 0.00 44 1003.3
20260503151004 57 281 7.0 12.0 0.00 0.00 0.00 53 1004.0
20260503150210 57 268 9.0 12.0 0.00 0.00 0.00 56 1004.0
20260503140210 56 253 6.0 9.0 0.00 0.00 0.00 59 1004.1
20260503131004 50 228 6.0 9.0 0.00 0.00 0.00 75 1004.3
20260503130209 49 224 5.0 6.0 0.00 0.00 0.00 76 1004.3
20260503110209 46 206 2.0 5.0 0.00 0.00 0.00 78 1004.3
20260503100210 48 208 2.0 3.0 0.00 0.00 0.00 76 1005.0
20260503090209 50 202 0.0 3.0 0.00 0.00 0.00 72 1005.4
20260503081004 51 200 2.0 5.0 0.00 0.00 0.00 72 1006.1
20260503080209 51 214 1.0 3.0 0.00 0.00 0.00 71 1006.4
20260503071710 52 223 3.0 5.0 0.00 0.00 0.00 68 1007.2
20260503071004 53 244 4.0 9.0 0.00 0.00 0.00 70 1007.4
20260503070209 53 245 6.0 9.0 0.00 0.00 0.00 68 1007.7
20260503060210 54 258 5.0 9.0 0.00 0.00 0.00 61 1008.1
20260503054709 54 256 6.0 8.0 0.00 0.00 0.00 61 1008.2
20260503054004 54 244 5.0 7.0 0.00 0.00 0.00 64 1008.2
20260503053210 54 246 3.0 5.0 0.00 0.00 0.00 64 1008.1
20260503052004 55 254 6.0 8.0 0.00 0.00 0.00 62 1008.4
20260503051709 54 248 6.0 7.0 0.00 0.00 0.00 62 1008.3
20260503051004 55 243 5.0 8.0 0.00 0.00 0.00 62 1008.3
20260503050210 55 252 5.0 7.0 0.00 0.00 0.00 61 1008.3
20260503045004 55 241 9.0 12.0 0.00 0.00 0.00 60 1008.3
20260503044709 55 248 7.0 8.0 0.00 0.00 0.00 61 1008.3
20260503044004 55 243 11.0 20.0 0.00 0.00 0.00 60 1008.5
20260503043209 55 250 12.0 15.0 0.00 0.00 0.00 60 1008.6
20260503043003 55 241 11.0 16.0 0.00 0.00 0.00 58 1008.5
20260503042004 54 225 9.0 13.0 0.00 0.00 0.00 59 1008.8
20260503041708 54 234 6.0 7.0 0.00 0.00 0.00 57 1008.8
20260503040209 53 235 7.0 9.0 0.00 0.00 0.00 56 1008.9
20260503040004 53 231 6.0 12.0 0.00 0.00 0.00 57 1009.0
20260503035003 53 220 4.0 7.0 0.00 0.00 0.00 55 1009.0
20260503034709 53 232 6.0 7.0 0.00 0.00 0.00 55 1009.0
20260503034004 53 230 5.0 8.0 0.00 0.00 0.00 54 1009.2
20260503033209 53 243 6.0 8.0 0.00 0.00 0.00 56 1009.3
20260503033004 53 241 5.0 7.0 0.00 0.00 0.00 58 1009.4
20260503032004 53 245 5.0 7.0 0.00 0.00 0.00 54 1009.6
20260503031709 52 247 5.0 5.0 0.00 0.00 0.00 56 1009.6
20260503031003 52 219 4.0 8.0 0.00 0.00 0.00 54 1009.6
20260503030209 52 216 3.0 6.0 0.00 0.00 0.00 52 1009.7
20260503030004 52 218 3.0 6.0 0.00 0.00 0.00 54 1009.7
20260503025004 52 222 3.0 8.0 0.00 0.00 0.00 52 1009.8
20260503024709 52 213 3.0 3.0 0.00 0.00 0.00 51 1009.7
20260503024004 52 195 3.0 6.0 0.00 0.00 0.00 49 1009.7
20260503023208 53 192 3.0 3.0 0.00 0.00 0.00 49 1009.8
20260503023004 53 194 2.0 6.0 0.00 0.00 0.00 50 1009.9
20260503022003 53 198 2.0 5.0 0.00 0.00 0.00 48 1010.0
20260503021708 53 195 1.0 3.0 0.00 0.00 0.00 47 1010.0
20260503021004 54 195 2.0 3.0 0.00 0.00 0.00 47 1010.0
20260503020208 54 202 1.0 3.0 0.00 0.00 0.00 47 1010.1
20260503020004 54 202 1.0 5.0 0.00 0.00 0.00 47 1010.1
20260503015003 54 202 2.0 5.0 0.00 0.00 0.00 46 1010.1
20260503014709 55 208 1.0 3.0 0.00 0.00 0.00 46 1010.1
20260503014004 55 206 2.0 7.0 0.00 0.00 0.00 45 1010.1
20260503013208 55 211 2.0 3.0 0.00 0.00 0.00 45 1010.1
20260503013004 55 204 3.0 6.0 0.00 0.00 0.00 45 1010.1
20260503012003 55 227 3.0 6.0 0.00 0.00 0.00 46 1010.1
20260503011708 56 205 3.0 6.0 0.00 0.00 0.00 45 1010.2
20260503011004 56 217 3.0 6.0 0.00 0.00 0.00 46 1010.2
20260503010211 56 237 3.0 6.0 0.00 0.00 0.00 47 1010.2
20260503010005 56 230 5.0 8.0 0.00 0.00 0.00 45 1010.2
20260503005006 56 229 5.0 9.0 0.00 0.00 0.00 47 1010.3
20260503004711 56 222 6.0 7.0 0.00 0.00 0.00 44 1010.3